Погода на Тенерифе

Испания     28°17′25″N   16°33′24″W
темп.,
°C
ветер,
м/с
пор.,
м/с
влажн.,
%
обл.,
%
осадки,
мм/ч
давл.,
гПа
погр.,
м
21 апреля, ср
ср2101:00+13ссз347527 0.0 1019185
04:00+13ссз33670 0.0 101776
07:00+12сз22703 0.0 101738
10:00+16ссв224911 0.0 1018372
13:00+20св44383 0.0 1017828
16:00+20св65414 0.0 1016768
19:00+18ссв24540 0.0 1016492
22:00+15ссз12634 0.0 1018157
22 апреля, чт
чт2201:00+14сз22540 0.0 101965
04:00+14ссз22502 0.0 101737
07:00+13зсз124920 0.0 101732
10:00+17всв11410 0.0 1018356
13:00+20в32441 0.0 1017766
16:00+20в32520 0.0 1016806
19:00+18в22580 0.0 1016608
22:00+15с12620 0.0 1018222
23 апреля, пт
пт2301:00+15сз11593 0.0 101756
04:00+14сз12625 0.0 101546
07:00+12сз22712 0.0 101546
10:00+17ссв12530 0.0 1016473
13:00+19в225911 0.0 1016870
16:00+17всв227783 0.3 1015603
19:00+15всв0272100 0.3 1014499
22:00+14сз127719 0.0 1015224
24 апреля, сб
сб2401:00+12зсз22808 0.1 101593
04:00+11зсз228826 0.1 101391
07:00+11зюз22833 0.1 101287
10:00+14юв12606 0.0 1013651
13:00+16юв235524 0.1 10121022
16:00+17в235529 0.1 10111016
19:00+15в136027 0.1 1011808
22:00+12ссв137617 0.1 1013446
25 апреля, вс
вс2501:00+12ю127823 0.3 1013338
04:00+11ссз227824 0.1 1011187
07:00+10зсз2377100 0.1 101173
10:00+14юв126115 0.0 1012610
13:00+16вюв235959 0.0 10121008
16:00+15вюв227094 0.0 1012771
19:00+14вюв127986 0.1 1013553
22:00+13св137942 0.0 1015462